IRIDIUM 148

Last updated on Fri Sep 11 2026 00:03:06 GMT+0000 (Coordinated Universal Time)

1 43255U 18030G 26253.53846346 .00000076 00000+0 20150-4 0 9992 2 43255 86.3909 254.7597 0002232 91.6948 268.4504 14.34217809442403
UTC large
Height (km)
Speed (km/s)
/
Latitude / Longitude
Inclination (degrees)
Orbital Period (minutes)
Azimuth
Elevation
Range (km)
Doppler Factor

Next 0 passes for location: London (51.5072 / 0.1276)

No passes found over London.
IRIDIUM 148